Home > Weather > Kirkenes > Past weeks

Flag for Norway Past Weather in Kirkenes, Norway — Yesterday and Last 2 Weeks

Now
53 °F

Cool.


Feels Like: 52 °F
Forecast: 44 / 65 °F
Wind: 3 mph from Northeast

Location: Kirkenes Lufthavn

Current Time: Jun 26, 2016 at 7:21:18 PM

Latest Report: Jun 26, 2016 at 5:00 PM


Visibility: N/A

Pressure: 30.13 "Hg

Humidity: 64%

Dew Point: 41 °F

Location of KirkenesLocation

Past Weather in Kirkenes — Graph

°F

Kirkenes Temperature Yesterday

Maximum temperature yesterday: 54 °F (at 12:00 AM)
Minimum temperature yesterday: 49 °F (at 9:00 AM)
Average temperature yesterday: 51 °F

High & Low Weather Summary for the Past Weeks

 TemperatureHumidityPressure
High74 °F (Jun 17, 2:00 PM)96% (Jun 19, 6:00 AM)30.13 "Hg (Jun 19, 6:00 AM)
Low42 °F (Jun 15, 2:00 AM)27% (Jun 17, 2:00 PM)29.59 "Hg (Jun 19, 8:00 AM)
Average52 °F73%29.87 "Hg
* Reported Jun 11 5:00 PM — Jun 26 5:00 PM, Kirkenes, Weather by CustomWeather, © 2016

Note: Actual official high and low records may vary slightly from our data, if they occured in-between our weather recording intervals... More about our weather records

Advertising

Kirkenes Weather History for the Previous 24 Hours

Scroll right to see more
 ConditionsComfort  
Time TempWeatherWind HumidityBarometerVisibility
5:00 PM
Sun, Jun 26
53 °FCool.3 mph64%30.13 "HgN/A
4:00 PM53 °FCool.2 mph61%30.12 "HgN/A
3:00 PM54 °FCool.2 mph63%30.12 "HgN/A
2:00 PM52 °FCool.2 mph66%30.12 "HgN/A
1:00 PM51 °FCool.3 mph67%30.13 "HgN/A
12:00 PM49 °FCool.5 mph72%30.12 "HgN/A
11:00 AM48 °FCool.6 mph80%30.12 "HgN/A
10:00 AM46 °FCool.8 mph85%30.10 "HgN/A
9:00 AM46 °FCool.7 mph86%30.09 "HgN/A
8:00 AM46 °FCool.6 mph86%30.08 "HgN/A
7:00 AM47 °FCool.6 mph89%30.06 "HgN/A
6:00 AM48 °FCool.3 mph86%30.05 "HgN/A
5:00 AM49 °FCool.6 mph84%30.03 "HgN/A
4:00 AM48 °FCool.6 mph85%30.02 "HgN/A
3:00 AM48 °FCool.6 mph82%30.01 "HgN/A
2:00 AM49 °FCool.6 mph80%30.01 "HgN/A
1:00 AM49 °FCool.6 mph81%30.00 "HgN/A
12:00 AM49 °FCool.5 mph83%29.99 "HgN/A
11:00 PM
Sat, Jun 25
50 °FCool.5 mph78%29.98 "HgN/A
10:00 PM51 °FCool.6 mph78%29.98 "HgN/A
9:00 PM51 °FCool.5 mph77%29.97 "HgN/A
8:00 PM52 °FCool.5 mph76%29.96 "HgN/A
7:00 PM52 °FCool.3 mph74%29.96 "HgN/A
Weather by CustomWeather, © 2016

See weather overviewHow to use our weather pages